PROFILE

 METAR AND TAF INFORMATION
ADDS - METARS form results

(1213 UTC 26 March 2019)
http://aviationweather.gov/metar/data/
 
DAAG 261200Z 08021KT 9999 FEW023 SCT040 BKN080 16/10 Q1019
DAAG 261130Z 08024KT 9999 FEW023 BKN086 17/10 Q1019
TAF DAAG 261100Z 2612/2712 08020KT 9999 FEW026 SCT100 PROB40 TEMPO 2612/2618 08020G30KT PROB30 TEMPO 2612/2620 5000 -TSRA FEW026CB BECMG 2620/2623 24008KT BECMG 2708/1712 10012KT 

 AIRPORT MAP

 RUNWAY INFORMATION
Runway 05 Runway length 11483 ft Runway width 197 ft
Runway elevation 72 ft Runway displaced threshold 0 ft Runway heading 53
Runway 23 Runway length 11483 ft Runway width 197 ft
Runway elevation 82 ft Runway displaced threshold 0 ft Runway heading 233
Runway 09 Runway length 11483 ft Runway width 148 ft
Runway elevation 56 ft Runway displaced threshold 0 ft Runway heading 92
Runway 27 Runway length 11483 ft Runway width 148 ft
Runway elevation 82 ft Runway displaced threshold 0 ft Runway heading 272

 AIRPORT FREQUENCIES
Type APP Name ALGER APP Frequency 121.4 MHZ
Type GND Name ALGER GND Frequency 121.8 MHZ
Type TWR Name ALGER TWR Frequency 118.7 MHZ

 AIRPORT NEAR NAVIGATION AIDS
Type VOR-DME Name Alger Frequency 112500 KHZ
Type NDB Name Houari Boumediene Frequency 416 KHZ
Type VOR Name Alger Frequency 113900 KHZ
Type NDB Name Houari Boumediene Frequency 370 KHZ